"read_dt","SO2 (ppb)","flags","PMT voltage (V)","lamp voltage (V)","lamp intensity (Hz)","internal temp (C)","react chamber temp (C)","sample flow (l/min)","pres (mmHg)","SO2 bkg (ppb)","SO2 coefficient"
2016-03-12 00:00:00,1895E-3,5C000400,-0724,0835,12181,023.8,045.3,0.263,761.4,01.16,0.508
2016-03-12 00:01:00,1861E-3,5C000400,-0724,0836,12122,023.8,045.3,0.263,761.4,01.16,0.508
2016-03-12 00:02:00,1795E-3,5C000400,-0724,0836,12116,023.8,045.3,0.263,761.4,01.16,0.508
2016-03-12 00:03:00,1629E-3,5C000400,-0724,0835,12072,023.9,045.3,0.263,761.4,01.16,0.508
2016-03-12 00:04:00,1749E-3,5C000400,-0724,0836,12305,023.9,045.3,0.262,761.4,01.16,0.508
2016-03-12 00:05:00,1734E-3,5C000400,-0724,0835,12121,023.8,045.3,0.263,761.4,01.16,0.508
2016-03-12 00:06:00,1866E-3,5C000400,-0724,0835,11980,023.9,045.3,0.262,761.4,01.16,0.508
2016-03-12 00:07:00,1875E-3,5C000400,-0724,0835,12101,023.9,045.3,0.263,761.4,01.16,0.508
2016-03-12 00:08:00,1840E-3,5C000400,-0724,0835,12157,023.9,045.3,0.263,761.4,01.16,0.508
2016-03-12 00:09:00,1532E-3,5C000400,-0724,0835,12114,023.9,045.3,0.262,761.4,01.16,0.508
2016-03-12 00:10:00,1829E-3,5C000400,-0724,0835,12075,023.9,045.3,0.263,761.4,01.16,0.508
2016-03-12 00:11:00,1784E-3,5C000400,-0724,0836,12167,023.8,045.3,0.263,761.4,01.16,0.508
2016-03-12 00:12:00,1888E-3,5C000400,-0724,0835,12188,023.9,045.3,0.262,761.4,01.16,0.508
2016-03-12 00:13:00,1700E-3,5C000400,-0724,0836,12162,023.9,045.3,0.263,761.5,01.16,0.508
2016-03-12 00:14:00,1837E-3,5C000400,-0724,0835,12048,023.9,045.3,0.263,761.5,01.16,0.508
2016-03-12 00:15:00,1920E-3,5C000400,-0724,0836,12121,023.9,045.3,0.262,761.5,01.16,0.508
2016-03-12 00:16:00,1776E-3,5C000400,-0724,0835,12219,023.9,045.3,0.263,761.5,01.16,0.508
2016-03-12 00:17:00,1834E-3,5C000400,-0724,0836,12215,023.9,045.3,0.263,761.5,01.16,0.508
2016-03-12 00:18:00,1706E-3,5C000400,-0724,0835,12109,023.9,045.3,0.263,761.5,01.16,0.508
2016-03-12 00:19:00,1766E-3,5C000400,-0724,0835,12107,023.9,045.3,0.263,761.5,01.16,0.508
2016-03-12 00:20:00,1735E-3,5C000400,-0724,0836,12032,023.9,045.3,0.262,761.5,01.16,0.508
2016-03-12 00:21:00,1798E-3,5C000400,-0724,0835,12025,023.9,045.3,0.263,761.5,01.16,0.508
2016-03-12 00:22:00,1809E-3,5C000400,-0724,0835,11992,023.9,045.3,0.262,761.5,01.16,0.508
2016-03-12 00:23:00,1835E-3,5C000400,-0724,0835,12174,023.9,045.3,0.263,761.5,01.16,0.508
2016-03-12 00:24:00,1868E-3,5C000400,-0724,0835,12245,023.9,045.3,0.262,761.5,01.16,0.508
2016-03-12 00:25:00,1654E-3,5C000400,-0724,0836,12292,023.9,045.3,0.263,761.5,01.16,0.508
2016-03-12 00:26:00,1890E-3,5C000400,-0724,0835,12260,023.9,045.3,0.263,761.5,01.16,0.508
2016-03-12 00:27:00,1721E-3,5C000400,-0724,0835,12173,023.9,045.3,0.262,761.6,01.16,0.508
2016-03-12 00:28:00,1739E-3,5C000400,-0724,0835,12173,023.9,045.3,0.263,761.5,01.16,0.508
2016-03-12 00:29:00,1676E-3,5C000400,-0724,0835,12130,024.0,045.3,0.263,761.5,01.16,0.508
2016-03-12 00:30:00,1757E-3,5C000400,-0724,0835,12262,023.9,045.3,0.262,761.5,01.16,0.508
2016-03-12 00:31:00,1846E-3,5C000400,-0724,0836,12102,024.0,045.3,0.263,761.6,01.16,0.508
2016-03-12 00:32:00,1786E-3,5C000400,-0724,0834,12193,023.9,045.3,0.263,761.6,01.16,0.508
2016-03-12 00:33:00,1773E-3,5C000400,-0724,0836,12035,024.0,045.3,0.262,761.6,01.16,0.508
2016-03-12 00:34:00,1759E-3,5C000400,-0724,0834,12173,023.9,045.3,0.263,761.6,01.16,0.508
2016-03-12 00:35:00,1773E-3,5C000400,-0724,0835,12269,023.9,045.3,0.262,761.6,01.16,0.508
2016-03-12 00:36:00,1723E-3,5C000400,-0724,0835,12255,024.0,045.3,0.263,761.6,01.16,0.508
2016-03-12 00:37:00,1706E-3,5C000400,-0724,0836,12118,023.9,045.3,0.262,761.6,01.16,0.508
2016-03-12 00:38:00,1733E-3,5C000400,-0724,0836,12053,024.0,045.3,0.263,761.6,01.16,0.508
2016-03-12 00:39:00,1778E-3,5C000400,-0724,0835,12211,024.0,045.3,0.262,761.6,01.16,0.508
2016-03-12 00:40:00,1771E-3,5C000400,-0724,0835,12212,024.0,045.3,0.263,761.6,01.16,0.508
2016-03-12 00:41:00,1721E-3,5C000400,-0724,0835,12106,024.0,045.3,0.263,761.6,01.16,0.508
2016-03-12 00:42:00,1771E-3,5C000400,-0724,0835,12085,024.0,045.3,0.263,761.6,01.16,0.508
2016-03-12 00:43:00,1799E-3,5C000400,-0724,0835,12069,024.0,045.3,0.262,761.6,01.16,0.508
2016-03-12 00:44:00,1836E-3,5C000400,-0724,0835,12109,024.0,045.3,0.263,761.6,01.16,0.508
2016-03-12 00:45:00,1701E-3,5C000400,-0724,0836,12048,024.0,045.3,0.263,761.6,01.16,0.508
2016-03-12 00:46:00,1733E-3,5C000400,-0724,0835,12112,024.0,045.3,0.263,761.6,01.16,0.508
2016-03-12 00:47:00,1705E-3,5C000400,-0724,0835,12140,024.0,045.3,0.263,761.6,01.16,0.508
2016-03-12 00:48:00,1801E-3,5C000400,-0724,0835,12006,024.0,045.3,0.262,761.6,01.16,0.508
2016-03-12 00:49:00,1929E-3,5C000400,-0724,0836,12118,024.0,045.3,0.262,761.6,01.16,0.508
2016-03-12 00:50:00,1798E-3,5C000400,-0724,0835,12242,024.0,045.3,0.262,761.6,01.16,0.508
2016-03-12 00:51:00,1743E-3,5C000400,-0724,0835,12015,024.0,045.3,0.262,761.6,01.16,0.508
2016-03-12 00:52:00,1771E-3,5C000400,-0724,0836,12205,024.0,045.3,0.263,761.6,01.16,0.508
2016-03-12 00:53:00,1699E-3,5C000400,-0724,0835,12128,024.0,045.3,0.263,761.6,01.16,0.508
2016-03-12 00:54:00,1810E-3,5C000400,-0724,0835,12161,024.0,045.3,0.263,761.6,01.16,0.508
2016-03-12 00:55:00,1900E-3,5C000400,-0724,0835,12179,024.0,045.3,0.263,761.6,01.16,0.508
2016-03-12 00:56:00,1846E-3,5C000400,-0724,0836,12166,024.1,045.3,0.262,761.6,01.16,0.508
2016-03-12 00:57:00,1842E-3,5C000400,-0724,0836,12121,024.1,045.3,0.262,761.6,01.16,0.508
2016-03-12 00:58:00,1775E-3,5C000400,-0724,0835,12111,024.1,045.3,0.262,761.6,01.16,0.508
2016-03-12 00:59:00,1697E-3,5C000400,-0724,0835,12085,024.1,045.3,0.263,761.6,01.16,0.508
2016-03-12 01:00:00,1663E-3,5C000400,-0724,0836,12193,024.1,045.3,0.263,761.6,01.16,0.508
2016-03-12 01:01:00,1802E-3,5C000400,-0724,0835,12055,024.1,045.3,0.262,761.6,01.16,0.508
2016-03-12 01:02:00,1851E-3,5C000400,-0724,0835,12067,024.1,045.3,0.262,761.6,01.16,0.508
2016-03-12 01:03:00,1792E-3,5C000400,-0724,0835,12176,024.1,045.3,0.262,761.6,01.16,0.508
2016-03-12 01:04:00,1834E-3,5C000400,-0724,0836,12171,024.1,045.3,0.262,761.6,01.16,0.508
2016-03-12 01:05:00,1791E-3,5C000400,-0724,0836,12086,024.1,045.3,0.263,761.6,01.16,0.508
2016-03-12 01:06:00,1754E-3,5C000400,-0724,0835,12188,024.1,045.3,0.262,761.6,01.16,0.508
2016-03-12 01:07:00,1730E-3,5C000400,-0724,0836,12283,024.1,045.3,0.262,761.6,01.16,0.508
2016-03-12 01:08:00,1615E-3,5C000400,-0724,0835,12180,024.1,045.3,0.262,761.6,01.16,0.508
2016-03-12 01:09:00,1811E-3,5C000400,-0724,0835,12094,024.1,045.3,0.263,761.6,01.16,0.508
2016-03-12 01:10:00,1835E-3,5C000400,-0724,0836,12124,024.1,045.3,0.262,761.6,01.16,0.508
2016-03-12 01:11:00,1772E-3,5C000400,-0724,0835,12096,024.1,045.3,0.262,761.6,01.16,0.508
2016-03-12 01:12:00,1730E-3,5C000400,-0724,0836,12179,024.2,045.3,0.262,761.6,01.16,0.508
2016-03-12 01:13:00,1686E-3,5C000400,-0724,0836,12154,024.1,045.3,0.262,761.6,01.16,0.508
2016-03-12 01:14:00,1826E-3,5C000400,-0724,0835,12157,024.1,045.3,0.262,761.6,01.16,0.508
2016-03-12 01:15:00,1865E-3,5C000400,-0724,0836,12184,024.1,045.3,0.262,761.6,01.16,0.508
2016-03-12 01:16:00,1669E-3,5C000400,-0724,0835,12118,024.1,045.3,0.262,761.6,01.16,0.508
2016-03-12 01:17:00,1705E-3,5C000400,-0724,0835,12199,024.2,045.3,0.262,761.6,01.16,0.508
2016-03-12 01:18:00,1795E-3,5C000400,-0724,0836,12147,024.2,045.3,0.262,761.6,01.16,0.508
2016-03-12 01:19:00,1853E-3,5C000400,-0724,0835,12229,024.2,045.3,0.262,761.7,01.16,0.508
2016-03-12 01:20:00,1744E-3,5C000400,-0724,0836,12183,024.2,045.3,0.262,761.7,01.16,0.508
2016-03-12 01:21:00,1837E-3,5C000400,-0724,0836,12132,024.2,045.3,0.262,761.7,01.16,0.508
2016-03-12 01:22:00,1794E-3,5C000400,-0724,0835,11984,024.2,045.3,0.262,761.7,01.16,0.508
2016-03-12 01:23:00,1791E-3,5C000400,-0724,0835,12103,024.2,045.3,0.262,761.7,01.16,0.508
2016-03-12 01:24:00,1756E-3,5C000400,-0724,0835,12175,024.2,045.3,0.262,761.7,01.16,0.508
2016-03-12 01:25:00,1731E-3,5C000400,-0724,0836,12137,024.2,045.3,0.262,761.7,01.16,0.508
2016-03-12 01:26:00,1771E-3,5C000400,-0724,0835,12156,024.2,045.3,0.262,761.6,01.16,0.508
2016-03-12 01:27:00,1843E-3,5C000400,-0724,0836,12103,024.2,045.3,0.262,761.6,01.16,0.508
2016-03-12 01:28:00,1749E-3,5C000400,-0724,0835,12053,024.2,045.3,0.262,761.7,01.16,0.508
2016-03-12 01:29:00,1774E-3,5C000400,-0724,0836,12011,024.2,045.3,0.262,761.7,01.16,0.508
2016-03-12 01:30:00,1784E-3,5C000400,-0724,0835,12128,024.2,045.3,0.262,761.7,01.16,0.508
2016-03-12 01:31:00,1914E-3,5C000400,-0724,0835,12191,024.3,045.3,0.262,761.7,01.16,0.508
2016-03-12 01:32:00,1798E-3,5C000400,-0724,0836,12187,024.3,045.3,0.262,761.7,01.16,0.508
2016-03-12 01:33:00,1702E-3,5C000400,-0724,0835,12155,024.3,045.3,0.262,761.7,01.16,0.508
2016-03-12 01:34:00,1734E-3,5C000400,-0724,0835,12100,024.3,045.3,0.262,761.7,01.16,0.508
2016-03-12 01:35:00,1906E-3,5C000400,-0724,0835,12172,024.3,045.3,0.262,761.7,01.16,0.508
2016-03-12 01:36:00,1738E-3,5C000400,-0724,0835,12209,024.3,045.3,0.262,761.7,01.16,0.508
2016-03-12 01:37:00,1643E-3,5C000400,-0724,0835,12036,024.3,045.3,0.262,761.7,01.16,0.508
2016-03-12 01:38:00,1892E-3,5C000400,-0724,0835,12174,024.3,045.3,0.262,761.7,01.16,0.508
2016-03-12 01:39:00,1784E-3,5C000400,-0724,0836,12326,024.3,045.3,0.262,761.7,01.16,0.508
2016-03-12 01:40:00,1813E-3,5C000400,-0724,0836,12106,024.3,045.3,0.262,761.7,01.16,0.508
2016-03-12 01:41:00,1691E-3,5C000400,-0724,0835,12252,024.3,045.3,0.262,761.7,01.16,0.508
2016-03-12 01:42:00,1692E-3,5C000400,-0724,0835,12159,024.3,045.3,0.262,761.6,01.16,0.508
2016-03-12 01:43:00,1743E-3,5C000400,-0724,0836,12116,024.3,045.3,0.262,761.6,01.16,0.508
2016-03-12 01:44:00,1855E-3,5C000400,-0724,0835,12115,024.4,045.3,0.262,761.6,01.16,0.508
2016-03-12 01:45:00,1735E-3,5C000400,-0724,0836,12092,024.3,045.3,0.263,761.6,01.16,0.508
2016-03-12 01:46:00,1856E-3,5C000400,-0724,0835,12216,024.4,045.3,0.262,761.7,01.16,0.508
2016-03-12 01:47:00,1670E-3,5C000400,-0724,0835,12158,024.4,045.3,0.262,761.7,01.16,0.508
2016-03-12 01:48:00,1723E-3,5C000400,-0724,0835,12211,024.4,045.3,0.262,761.7,01.16,0.508
2016-03-12 01:49:00,1679E-3,5C000400,-0724,0835,12131,024.4,045.3,0.262,761.7,01.16,0.508
2016-03-12 01:50:00,1709E-3,5C000400,-0724,0835,12041,024.4,045.3,0.262,761.7,01.16,0.508
2016-03-12 01:51:00,1801E-3,5C000400,-0724,0835,12238,024.4,045.3,0.262,761.7,01.16,0.508
2016-03-12 01:52:00,1833E-3,5C000400,-0724,0836,12225,024.4,045.3,0.262,761.7,01.16,0.508
2016-03-12 01:53:00,1687E-3,5C000400,-0724,0835,12170,024.4,045.3,0.262,761.7,01.16,0.508
2016-03-12 01:54:00,1812E-3,5C000400,-0724,0835,12129,024.4,045.3,0.262,761.7,01.16,0.508
2016-03-12 01:55:00,1898E-3,5C000400,-0724,0836,12181,024.4,045.3,0.262,761.8,01.16,0.508
2016-03-12 01:56:00,1672E-3,5C000400,-0724,0836,12251,024.5,045.3,0.262,761.7,01.16,0.508
2016-03-12 01:57:00,1856E-3,5C000400,-0724,0835,12078,024.5,045.3,0.262,761.7,01.16,0.508
2016-03-12 01:58:00,1862E-3,5C000400,-0724,0836,12167,024.4,045.3,0.262,761.8,01.16,0.508
2016-03-12 01:59:00,1746E-3,5C000400,-0724,0835,12140,024.5,045.3,0.262,761.7,01.16,0.508
2016-03-12 02:00:00,1729E-3,5C000400,-0724,0835,12162,024.5,045.3,0.262,761.7,01.16,0.508
2016-03-12 02:01:00,1781E-3,5C000400,-0724,0836,12155,024.5,045.3,0.262,761.8,01.16,0.508
2016-03-12 02:02:00,1783E-3,5C000400,-0724,0835,12098,024.5,045.3,0.262,761.7,01.16,0.508
2016-03-12 02:03:00,1724E-3,5C000400,-0724,0835,12153,024.5,045.3,0.261,761.8,01.16,0.508
2016-03-12 02:04:00,1842E-3,5C000400,-0724,0836,12142,024.5,045.3,0.262,761.8,01.16,0.508
2016-03-12 02:05:00,1770E-3,5C000400,-0724,0836,12113,024.5,045.3,0.262,761.8,01.16,0.508
2016-03-12 02:06:00,1738E-3,5C000400,-0724,0835,12203,024.5,045.3,0.262,761.8,01.16,0.508
2016-03-12 02:07:00,1761E-3,5C000400,-0724,0835,12154,024.5,045.3,0.262,761.8,01.16,0.508
2016-03-12 02:08:00,1796E-3,5C000400,-0724,0835,12046,024.5,045.3,0.261,761.8,01.16,0.508
2016-03-12 02:09:00,1749E-3,5C000400,-0724,0836,12135,024.5,045.3,0.262,761.8,01.16,0.508
2016-03-12 02:10:00,1769E-3,5C000400,-0724,0836,12165,024.5,045.3,0.262,761.8,01.16,0.508
2016-03-12 02:11:00,1754E-3,5C000400,-0724,0835,12160,024.5,045.3,0.262,761.8,01.16,0.508
2016-03-12 02:12:00,1657E-3,5C000400,-0724,0836,12217,024.5,045.3,0.262,761.8,01.16,0.508
2016-03-12 02:13:00,1657E-3,5C000400,-0724,0835,12210,024.6,045.3,0.261,761.8,01.16,0.508
2016-03-12 02:14:00,1788E-3,5C000400,-0724,0836,12239,024.6,045.3,0.262,761.8,01.16,0.508
2016-03-12 02:15:00,1759E-3,5C000400,-0724,0835,12164,024.6,045.3,0.261,761.8,01.16,0.508
2016-03-12 02:16:00,1810E-3,5C000400,-0724,0836,12171,024.6,045.3,0.262,761.8,01.16,0.508
2016-03-12 02:17:00,1864E-3,5C000400,-0724,0836,12128,024.6,045.3,0.261,761.8,01.16,0.508
2016-03-12 02:18:00,1806E-3,5C000400,-0724,0836,12208,024.6,045.3,0.262,761.8,01.16,0.508
2016-03-12 02:19:00,1664E-3,5C000400,-0724,0836,12281,024.6,045.3,0.261,761.8,01.16,0.508
2016-03-12 02:20:00,1757E-3,5C000400,-0724,0835,12205,024.6,045.3,0.262,761.8,01.16,0.508
2016-03-12 02:21:00,1724E-3,5C000400,-0724,0835,12033,024.6,045.3,0.262,761.8,01.16,0.508
2016-03-12 02:22:00,1671E-3,5C000400,-0724,0836,12050,024.6,045.3,0.261,761.8,01.16,0.508
2016-03-12 02:23:00,1719E-3,5C000400,-0724,0835,12154,024.6,045.3,0.261,761.8,01.16,0.508
2016-03-12 02:24:00,1697E-3,5C000400,-0724,0835,12096,024.6,045.3,0.262,761.8,01.16,0.508
2016-03-12 02:25:00,1814E-3,5C000400,-0724,0836,12184,024.6,045.3,0.261,761.8,01.16,0.508
2016-03-12 02:26:00,1796E-3,5C000400,-0724,0836,12230,024.7,045.3,0.261,761.8,01.16,0.508
2016-03-12 02:27:00,1666E-3,5C000400,-0724,0835,12045,024.7,045.3,0.262,761.8,01.16,0.508
2016-03-12 02:28:00,1787E-3,5C000400,-0724,0836,12172,024.7,045.3,0.261,761.8,01.16,0.508
2016-03-12 02:29:00,1774E-3,5C000400,-0724,0836,12043,024.7,045.3,0.262,761.8,01.16,0.508
2016-03-12 02:30:00,1803E-3,5C000400,-0724,0836,12230,024.7,045.3,0.261,761.8,01.16,0.508
2016-03-12 02:31:00,1791E-3,5C000400,-0724,0835,12064,024.7,045.3,0.261,761.8,01.16,0.508
2016-03-12 02:32:00,1812E-3,5C000400,-0724,0835,12192,024.7,045.3,0.261,761.8,01.16,0.508
2016-03-12 02:33:00,1833E-3,5C000400,-0724,0836,12269,024.7,045.3,0.261,761.8,01.16,0.508
2016-03-12 02:34:00,1732E-3,5C000400,-0724,0836,12014,024.7,045.3,0.261,761.8,01.16,0.508
2016-03-12 02:35:00,1858E-3,5C000400,-0724,0835,12073,024.7,045.3,0.262,761.8,01.16,0.508
2016-03-12 02:36:00,1723E-3,5C000400,-0724,0835,12107,024.7,045.3,0.261,761.8,01.16,0.508
2016-03-12 02:37:00,1705E-3,5C000400,-0724,0836,11945,024.7,045.3,0.261,761.7,01.16,0.508
2016-03-12 02:38:00,1835E-3,5C000400,-0724,0835,12064,024.7,045.3,0.261,761.7,01.16,0.508
2016-03-12 02:39:00,1772E-3,5C000400,-0724,0835,12029,024.7,045.3,0.261,761.8,01.16,0.508
2016-03-12 02:40:00,1780E-3,5C000400,-0724,0836,12241,024.8,045.3,0.261,761.8,01.16,0.508
2016-03-12 02:41:00,1819E-3,5C000400,-0724,0836,12225,024.8,045.3,0.261,761.8,01.16,0.508
2016-03-12 02:42:00,1806E-3,5C000400,-0724,0835,12308,024.8,045.3,0.262,761.8,01.16,0.508
2016-03-12 02:43:00,1848E-3,5C000400,-0724,0836,12248,024.8,045.3,0.262,761.8,01.16,0.508
2016-03-12 02:44:00,1889E-3,5C000400,-0724,0835,12166,024.8,045.3,0.261,761.8,01.16,0.508
2016-03-12 02:45:00,1740E-3,5C000400,-0724,0836,12230,024.8,045.3,0.261,761.8,01.16,0.508
2016-03-12 02:46:00,1769E-3,5C000400,-0724,0836,12265,024.8,045.3,0.261,761.8,01.16,0.508
2016-03-12 02:47:00,1683E-3,5C000400,-0724,0836,12245,024.8,045.3,0.261,761.8,01.16,0.508
2016-03-12 02:48:00,1812E-3,5C000400,-0724,0836,12151,024.8,045.3,0.261,761.8,01.16,0.508
2016-03-12 02:49:00,1705E-3,5C000400,-0724,0837,12158,024.8,045.3,0.261,761.8,01.16,0.508
2016-03-12 02:50:00,1869E-3,5C000400,-0724,0835,12196,024.9,045.3,0.261,761.8,01.16,0.508
2016-03-12 02:51:00,1887E-3,5C000400,-0724,0836,12101,024.8,045.3,0.261,761.8,01.16,0.508
2016-03-12 02:52:00,1665E-3,5C000400,-0724,0836,12027,024.9,045.3,0.261,761.8,01.16,0.508
2016-03-12 02:53:00,1743E-3,5C000400,-0724,0836,12278,024.8,045.3,0.261,761.8,01.16,0.508
2016-03-12 02:54:00,1646E-3,5C000400,-0724,0836,12106,024.9,045.3,0.261,761.8,01.16,0.508
2016-03-12 02:55:00,1744E-3,5C000400,-0724,0836,12148,024.9,045.3,0.261,761.8,01.16,0.508
2016-03-12 02:56:00,1790E-3,5C000400,-0724,0836,12044,024.9,045.3,0.261,761.8,01.16,0.508
2016-03-12 02:57:00,1800E-3,5C000400,-0724,0835,12238,024.9,045.3,0.261,761.8,01.16,0.508
2016-03-12 02:58:00,1702E-3,5C000400,-0724,0835,12175,025.0,045.3,0.261,761.8,01.16,0.508
2016-03-12 02:59:00,1640E-3,5C000400,-0724,0836,12123,024.9,045.4,0.261,761.8,01.16,0.508
2016-03-12 03:00:00,1720E-3,5C000400,-0724,0836,11975,024.9,045.3,0.261,761.8,01.16,0.508
2016-03-12 03:01:00,1832E-3,5C000400,-0724,0836,12038,024.9,045.3,0.261,761.9,01.16,0.508
2016-03-12 03:02:00,1906E-3,5C000400,-0724,0836,12198,025.0,045.3,0.261,761.9,01.16,0.508
2016-03-12 03:03:00,1863E-3,5C000400,-0724,0835,12260,025.0,045.4,0.261,761.9,01.16,0.508
2016-03-12 03:04:00,1809E-3,5C000400,-0724,0835,12137,025.0,045.3,0.261,761.9,01.16,0.508
2016-03-12 03:05:00,1895E-3,5C000400,-0724,0835,12156,025.0,045.3,0.261,761.9,01.16,0.508
2016-03-12 03:06:00,1830E-3,5C000400,-0724,0836,12146,025.0,045.3,0.261,761.9,01.16,0.508
2016-03-12 03:07:00,1711E-3,5C000400,-0724,0835,12165,025.0,045.3,0.261,761.9,01.16,0.508
2016-03-12 03:08:00,1794E-3,5C000400,-0724,0835,12168,025.0,045.3,0.261,761.9,01.16,0.508
2016-03-12 03:09:00,1793E-3,5C000400,-0724,0835,12150,025.0,045.3,0.261,761.9,01.16,0.508
2016-03-12 03:10:00,1745E-3,5C000400,-0724,0835,12086,025.1,045.3,0.261,761.9,01.16,0.508
2016-03-12 03:11:00,1800E-3,5C000400,-0724,0836,12123,025.0,045.3,0.261,761.9,01.16,0.508
2016-03-12 03:12:00,1803E-3,5C000400,-0724,0836,12108,025.1,045.3,0.260,761.9,01.16,0.508
2016-03-12 03:13:00,1721E-3,5C000400,-0724,0836,12234,025.1,045.3,0.261,761.9,01.16,0.508
2016-03-12 03:14:00,1839E-3,5C000400,-0724,0836,12178,025.1,045.3,0.261,761.9,01.16,0.508
2016-03-12 03:15:00,1786E-3,5C000400,-0724,0836,12157,025.1,045.3,0.261,761.9,01.16,0.508
2016-03-12 03:16:00,1657E-3,5C000400,-0724,0836,12066,025.1,045.3,0.261,761.9,01.16,0.508
2016-03-12 03:17:00,1842E-3,5C000400,-0724,0836,12098,025.1,045.4,0.260,761.9,01.16,0.508
2016-03-12 03:18:00,1768E-3,5C000400,-0724,0836,12078,025.1,045.3,0.261,761.9,01.16,0.508
2016-03-12 03:19:00,1776E-3,5C000400,-0724,0836,12176,025.1,045.3,0.261,761.9,01.16,0.508
2016-03-12 03:20:00,1869E-3,5C000400,-0724,0836,12274,025.1,045.3,0.261,761.9,01.16,0.508
2016-03-12 03:21:00,1781E-3,5C000400,-0724,0836,12235,025.1,045.3,0.260,761.9,01.16,0.508
2016-03-12 03:22:00,1693E-3,5C000400,-0724,0835,12130,025.2,045.4,0.261,761.9,01.16,0.508
2016-03-12 03:23:00,1863E-3,5C000400,-0724,0836,12176,025.2,045.3,0.261,761.9,01.16,0.508
2016-03-12 03:24:00,1645E-3,5C000400,-0724,0836,12159,025.2,045.3,0.260,761.9,01.16,0.508
2016-03-12 03:25:00,1755E-3,5C000400,-0724,0836,11945,025.2,045.3,0.261,761.9,01.16,0.508
2016-03-12 03:26:00,1709E-3,5C000400,-0724,0836,12198,025.2,045.3,0.260,761.9,01.16,0.508
2016-03-12 03:27:00,1735E-3,5C000400,-0724,0836,12149,025.2,045.3,0.261,761.9,01.16,0.508
2016-03-12 03:28:00,1768E-3,5C000400,-0724,0836,12078,025.2,045.3,0.260,761.9,01.16,0.508
2016-03-12 03:29:00,1770E-3,5C000400,-0724,0835,12030,025.2,045.3,0.260,761.9,01.16,0.508
2016-03-12 03:30:00,1802E-3,5C000400,-0724,0836,12079,025.2,045.4,0.260,761.9,01.16,0.508
2016-03-12 03:31:00,1810E-3,5C000400,-0724,0835,12158,025.2,045.3,0.260,761.9,01.16,0.508
2016-03-12 03:32:00,1857E-3,5C000400,-0724,0836,12094,025.2,045.3,0.260,761.9,01.16,0.508
2016-03-12 03:33:00,1760E-3,5C000400,-0724,0836,12017,025.2,045.3,0.260,761.9,01.16,0.508
2016-03-12 03:34:00,1753E-3,5C000400,-0724,0836,12165,025.3,045.4,0.260,761.9,01.16,0.508
2016-03-12 03:35:00,1714E-3,5C000400,-0724,0836,12211,025.3,045.4,0.261,761.9,01.16,0.508
2016-03-12 03:36:00,1831E-3,5C000400,-0724,0836,12149,025.3,045.3,0.260,761.9,01.16,0.508
2016-03-12 03:37:00,1718E-3,5C000400,-0724,0836,12134,025.3,045.3,0.261,761.9,01.16,0.508
2016-03-12 03:38:00,1732E-3,5C000400,-0724,0835,12117,025.3,045.3,0.260,761.9,01.16,0.508
2016-03-12 03:39:00,1822E-3,5C000400,-0724,0836,12043,025.3,045.3,0.260,761.9,01.16,0.508
2016-03-12 03:40:00,1752E-3,5C000400,-0724,0836,12160,025.3,045.3,0.260,761.9,01.16,0.508
2016-03-12 03:41:00,1744E-3,5C000400,-0724,0836,12112,025.3,045.3,0.260,761.9,01.16,0.508
2016-03-12 03:42:00,1921E-3,5C000400,-0724,0835,12219,025.3,045.3,0.261,761.9,01.16,0.508
2016-03-12 03:43:00,1807E-3,5C000400,-0724,0835,12160,025.3,045.3,0.260,761.9,01.16,0.508
2016-03-12 03:44:00,1741E-3,5C000400,-0724,0835,12224,025.4,045.4,0.260,761.9,01.16,0.508
2016-03-12 03:45:00,1763E-3,5C000400,-0724,0835,12000,025.3,045.3,0.261,761.9,01.16,0.508
2016-03-12 03:46:00,1885E-3,5C000400,-0724,0835,12095,025.4,045.4,0.260,761.9,01.16,0.508
2016-03-12 03:47:00,1686E-3,5C000400,-0724,0836,12089,025.4,045.3,0.260,761.9,01.16,0.508
2016-03-12 03:48:00,1861E-3,5C000400,-0724,0836,12176,025.4,045.4,0.260,761.9,01.16,0.508
2016-03-12 03:49:00,1758E-3,5C000400,-0724,0836,12180,025.4,045.4,0.260,761.9,01.16,0.508
2016-03-12 03:50:00,1798E-3,5C000400,-0724,0836,12097,025.4,045.3,0.260,761.9,01.16,0.508
2016-03-12 03:51:00,1821E-3,5C000400,-0724,0836,12000,025.4,045.3,0.260,761.9,01.16,0.508
2016-03-12 03:52:00,1839E-3,5C000400,-0724,0836,12143,025.4,045.4,0.260,761.9,01.16,0.508
2016-03-12 03:53:00,1826E-3,5C000400,-0724,0836,12265,025.4,045.3,0.260,761.9,01.16,0.508
2016-03-12 03:54:00,1719E-3,5C000400,-0724,0836,12141,025.4,045.4,0.260,761.9,01.16,0.508
2016-03-12 03:55:00,1696E-3,5C000400,-0724,0836,12211,025.5,045.3,0.260,762.0,01.16,0.508
2016-03-12 03:56:00,1910E-3,5C000400,-0724,0836,12168,025.5,045.3,0.260,761.9,01.16,0.508
2016-03-12 03:57:00,1706E-3,5C000400,-0724,0835,12148,025.5,045.3,0.260,761.9,01.16,0.508
2016-03-12 03:58:00,1701E-3,5C000400,-0724,0836,12201,025.5,045.3,0.260,761.9,01.16,0.508
2016-03-12 03:59:00,1826E-3,5C000400,-0724,0836,12150,025.5,045.3,0.260,761.9,01.16,0.508
2016-03-12 04:00:00,1650E-3,5C000400,-0724,0836,11907,025.5,045.3,0.260,761.9,01.16,0.508
2016-03-12 04:01:00,1806E-3,5C000400,-0724,0835,12074,025.5,045.4,0.260,761.9,01.16,0.508
2016-03-12 04:02:00,1782E-3,5C000400,-0724,0835,12015,025.5,045.4,0.260,762.0,01.16,0.508
2016-03-12 04:03:00,1784E-3,5C000400,-0724,0836,12134,025.5,045.4,0.260,762.0,01.16,0.508
2016-03-12 04:04:00,1881E-3,5C000400,-0724,0835,12143,025.6,045.4,0.260,761.9,01.16,0.508
2016-03-12 04:05:00,1757E-3,5C000400,-0724,0836,11978,025.6,045.3,0.259,761.9,01.16,0.508
2016-03-12 04:06:00,1699E-3,5C000400,-0724,0835,12150,025.5,045.3,0.260,762.0,01.16,0.508
2016-03-12 04:07:00,1844E-3,5C000400,-0724,0835,12209,025.6,045.3,0.260,762.0,01.16,0.508
2016-03-12 04:08:00,1699E-3,5C000400,-0724,0835,12100,025.6,045.3,0.260,762.0,01.16,0.508
2016-03-12 04:09:00,1792E-3,5C000400,-0724,0836,11998,025.6,045.3,0.260,762.0,01.16,0.508
2016-03-12 04:10:00,1678E-3,5C000400,-0724,0836,12148,025.6,045.3,0.260,762.0,01.16,0.508
2016-03-12 04:11:00,1768E-3,5C000400,-0724,0836,12180,025.6,045.4,0.260,762.0,01.16,0.508
2016-03-12 04:12:00,1637E-3,5C000400,-0724,0836,12021,025.6,045.3,0.260,762.0,01.16,0.508
2016-03-12 04:13:00,1737E-3,5C000400,-0724,0835,12080,025.6,045.4,0.260,762.0,01.16,0.508
2016-03-12 04:14:00,1702E-3,5C000400,-0724,0835,12199,025.6,045.4,0.260,762.0,01.16,0.508
2016-03-12 04:15:00,1695E-3,5C000400,-0724,0836,12041,025.6,045.4,0.259,762.0,01.16,0.508
2016-03-12 04:16:00,1885E-3,5C000400,-0724,0835,12071,025.6,045.4,0.260,762.0,01.16,0.508
2016-03-12 04:17:00,1818E-3,5C000400,-0724,0836,12204,025.6,045.3,0.260,762.0,01.16,0.508
2016-03-12 04:18:00,1837E-3,5C000400,-0724,0836,12073,025.7,045.4,0.260,762.0,01.16,0.508
2016-03-12 04:19:00,1884E-3,5C000400,-0724,0836,12033,025.7,045.3,0.260,762.0,01.16,0.508
2016-03-12 04:20:00,1681E-3,5C000400,-0724,0837,12234,025.7,045.3,0.259,762.0,01.16,0.508